Time,TemperatureF,DewpointF,PressureIn,WindDirection,WindDirectionDegrees,WindSpeedMPH,WindSpeedGustMPH,Humidity,HourlyPrecipIn,Conditions,Clouds,dailyrainin,SoftwareType,DateUTC
2013-03-26 00:02:00,50.0,-99.9,30.01,West,264,2.0,3.0,-999,-99.99,,,-99.99,,2013-03-26 07:02:00,
2013-03-26 00:12:00,50.0,-99.9,30.01,West,259,3.0,4.0,-999,-99.99,,,-99.99,,2013-03-26 07:12:00,
2013-03-26 00:22:00,50.0,-99.9,30.01,NW,320,5.0,8.0,-999,-99.99,,,-99.99,,2013-03-26 07:22:00,
2013-03-26 00:33:00,50.0,-99.9,30.01,NW,314,6.0,9.0,-999,-99.99,,,-99.99,,2013-03-26 07:33:00,
2013-03-26 00:43:00,50.0,-99.9,30.00,NW,325,9.0,11.0,-999,-99.99,,,-99.99,,2013-03-26 07:43:00,
2013-03-26 00:53:00,51.0,-99.9,30.00,WSW,244,3.0,11.0,-999,-99.99,,,-99.99,,2013-03-26 07:53:00,
2013-03-26 01:02:00,51.0,-99.9,30.00,SW,219,3.0,5.0,-999,-99.99,,,-99.99,,2013-03-26 08:02:00,
2013-03-26 01:13:00,50.0,-99.9,30.00,WSW,251,2.0,6.0,-999,-99.99,,,-99.99,,2013-03-26 08:13:00,
2013-03-26 01:22:00,50.0,-99.9,30.01,WSW,249,3.0,6.0,-999,-99.99,,,-99.99,,2013-03-26 08:22:00,
2013-03-26 01:32:00,50.0,-99.9,30.00,SSW,193,2.0,4.0,-999,-99.99,,,-99.99,,2013-03-26 08:32:00,
2013-03-26 01:42:00,50.0,-99.9,30.00,NNW,330,2.0,3.0,-999,-99.99,,,-99.99,,2013-03-26 08:42:00,
2013-03-26 01:52:00,49.0,-99.9,30.00,NNE,14,1.0,4.0,-999,-99.99,,,-99.99,,2013-03-26 08:52:00,
2013-03-26 02:02:00,50.0,-99.9,30.00,NNE,16,1.0,6.0,-999,-99.99,,,-99.99,,2013-03-26 09:02:00,
2013-03-26 02:22:00,50.0,-99.9,30.00,SSE,153,-999.0,3.0,-999,-99.99,,,-99.99,,2013-03-26 09:22:00,
2013-03-26 02:43:00,50.0,-99.9,29.99,SSE,152,3.0,6.0,-999,-99.99,,,-99.99,,2013-03-26 09:43:00,
2013-03-26 02:52:00,51.0,-99.9,29.99,SE,143,2.0,4.0,-999,-99.99,,,-99.99,,2013-03-26 09:52:00,
2013-03-26 03:03:00,51.0,-99.9,29.99,SE,141,2.0,4.0,-999,-99.99,,,-99.99,,2013-03-26 10:03:00,
2013-03-26 03:12:00,50.0,-99.9,29.99,ESE,112,2.0,4.0,-999,-99.99,,,-99.99,,2013-03-26 10:12:00,
2013-03-26 03:23:00,50.0,-99.9,29.98,ESE,122,2.0,5.0,-999,-99.99,,,-99.99,,2013-03-26 10:23:00,
2013-03-26 03:33:00,50.0,-99.9,29.98,SE,127,3.0,4.0,-999,-99.99,,,-99.99,,2013-03-26 10:33:00,
2013-03-26 03:43:00,50.0,-99.9,29.98,ESE,123,2.0,4.0,-999,-99.99,,,-99.99,,2013-03-26 10:43:00,
2013-03-26 03:53:00,50.0,-99.9,29.98,East,83,2.0,3.0,-999,-99.99,,,-99.99,,2013-03-26 10:53:00,
2013-03-26 04:03:00,50.0,-99.9,29.98,SSE,156,-999.0,1.0,-999,-99.99,,,-99.99,,2013-03-26 11:03:00,
2013-03-26 04:12:00,50.0,-99.9,29.98,WNW,300,2.0,3.0,-999,-99.99,,,-99.99,,2013-03-26 11:12:00,
2013-03-26 04:23:00,50.0,-99.9,29.98,NW,319,2.0,3.0,-999,-99.99,,,-99.99,,2013-03-26 11:23:00,
2013-03-26 04:33:00,50.0,-99.9,29.98,North,357,4.0,7.0,-999,-99.99,,,-99.99,,2013-03-26 11:33:00,
2013-03-26 04:43:00,50.0,-99.9,29.98,NNW,338,4.0,6.0,-999,-99.99,,,-99.99,,2013-03-26 11:43:00,
2013-03-26 04:53:00,50.0,-99.9,29.98,WNW,303,3.0,5.0,-999,-99.99,,,-99.99,,2013-03-26 11:53:00,
2013-03-26 05:03:00,50.0,-99.9,29.98,WNW,303,3.0,5.0,-999,-99.99,,,-99.99,,2013-03-26 12:03:00,
2013-03-26 05:12:00,50.0,-99.9,29.98,WNW,296,3.0,4.0,-999,-99.99,,,-99.99,,2013-03-26 12:12:00,
2013-03-26 05:22:00,50.0,-99.9,29.98,WNW,292,2.0,5.0,-999,-99.99,,,-99.99,,2013-03-26 12:22:00,
2013-03-26 05:32:00,50.0,-99.9,29.98,ENE,76,-999.0,3.0,-999,-99.99,,,-99.99,,2013-03-26 12:32:00,
2013-03-26 05:43:00,50.0,-99.9,29.98,SE,140,2.0,5.0,-999,-99.99,,,-99.99,,2013-03-26 12:43:00,
2013-03-26 05:52:00,50.0,-99.9,29.98,West,260,2.0,4.0,-999,-99.99,,,-99.99,,2013-03-26 12:52:00,
2013-03-26 06:03:00,50.0,-99.9,29.98,West,277,2.0,3.0,-999,-99.99,,,-99.99,,2013-03-26 13:03:00,
2013-03-26 06:12:00,50.0,-99.9,29.98,West,281,3.0,4.0,-999,-99.99,,,-99.99,,2013-03-26 13:12:00,
2013-03-26 06:23:00,49.0,-99.9,29.98,West,263,4.0,6.0,-999,-99.99,,,-99.99,,2013-03-26 13:23:00,
2013-03-26 06:32:00,49.0,-99.9,29.98,WNW,284,5.0,7.0,-999,-99.99,,,-99.99,,2013-03-26 13:32:00,
2013-03-26 06:42:00,49.0,-99.9,29.98,WNW,284,5.0,7.0,-999,-99.99,,,-99.99,,2013-03-26 13:42:00,
2013-03-26 06:52:00,49.0,-99.9,29.98,West,271,2.0,4.0,-999,-99.99,,,-99.99,,2013-03-26 13:52:00,
2013-03-26 07:02:00,49.0,-99.9,29.98,WNW,289,2.0,3.0,-999,-99.99,,,-99.99,,2013-03-26 14:02:00,
2013-03-26 07:12:00,49.0,-99.9,29.98,North,1,5.0,6.0,-999,-99.99,,,-99.99,,2013-03-26 14:12:00,
2013-03-26 07:23:00,49.0,-99.9,29.99,NNW,346,4.0,6.0,-999,-99.99,,,-99.99,,2013-03-26 14:23:00,
2013-03-26 07:33:00,49.0,-99.9,29.99,NW,317,4.0,7.0,-999,-99.99,,,-99.99,,2013-03-26 14:33:00,
2013-03-26 07:42:00,49.0,-99.9,30.00,NNW,328,6.0,6.0,-999,-99.99,,,-99.99,,2013-03-26 14:42:00,
2013-03-26 07:53:00,49.0,-99.9,30.00,North,355,3.0,4.0,-999,-99.99,,,-99.99,,2013-03-26 14:53:00,
2013-03-26 08:02:00,49.0,-99.9,30.00,NNW,344,2.0,3.0,-999,-99.99,,,-99.99,,2013-03-26 15:02:00,
2013-03-26 08:12:00,49.0,-99.9,30.00,NNW,328,3.0,4.0,-999,-99.99,,,-99.99,,2013-03-26 15:12:00,
2013-03-26 08:22:00,49.0,-99.9,30.00,NW,324,4.0,5.0,-999,-99.99,,,-99.99,,2013-03-26 15:22:00,
2013-03-26 08:33:00,49.0,-99.9,30.00,NNW,339,4.0,5.0,-999,-99.99,,,-99.99,,2013-03-26 15:33:00,
2013-03-26 08:43:00,49.0,-99.9,30.00,NNW,339,4.0,5.0,-999,-99.99,,,-99.99,,2013-03-26 15:43:00,
2013-03-26 08:53:00,49.0,-99.9,30.00,NNW,344,4.0,6.0,-999,-99.99,,,-99.99,,2013-03-26 15:53:00,
2013-03-26 09:03:00,49.0,-99.9,30.00,WNW,292,4.0,5.0,-999,-99.99,,,-99.99,,2013-03-26 16:03:00,
2013-03-26 09:13:00,49.0,-99.9,30.00,NW,313,3.0,5.0,-999,-99.99,,,-99.99,,2013-03-26 16:13:00,
2013-03-26 09:23:00,50.0,-99.9,30.00,North,6,1.0,3.0,-999,-99.99,,,-99.99,,2013-03-26 16:23:00,
2013-03-26 09:43:00,49.0,-99.9,30.00,WNW,296,2.0,3.0,-999,-99.99,,,-99.99,,2013-03-26 16:43:00,
2013-03-26 09:54:00,50.0,-99.9,30.00,NNW,331,2.0,2.0,-999,-99.99,,,-99.99,,2013-03-26 16:54:00,
2013-03-26 10:03:00,50.0,-99.9,30.01,West,281,3.0,4.0,-999,-99.99,,,-99.99,,2013-03-26 17:03:00,
2013-03-26 10:12:00,51.0,-99.9,30.01,SSW,200,3.0,4.0,-999,-99.99,,,-99.99,,2013-03-26 17:12:00,
2013-03-26 10:23:00,51.0,-99.9,30.01,SSW,196,4.0,6.0,-999,-99.99,,,-99.99,,2013-03-26 17:23:00,
2013-03-26 10:33:00,51.0,-99.9,30.01,South,172,3.0,4.0,-999,-99.99,,,-99.99,,2013-03-26 17:33:00,
2013-03-26 10:42:00,51.0,-99.9,30.01,SSE,162,5.0,6.0,-999,-99.99,,,-99.99,,2013-03-26 17:42:00,
2013-03-26 10:53:00,52.0,-99.9,30.01,SSE,151,3.0,7.0,-999,-99.99,,,-99.99,,2013-03-26 17:53:00,
2013-03-26 11:03:00,51.0,-99.9,30.01,SSE,160,7.0,9.0,-999,-99.99,,,-99.99,,2013-03-26 18:03:00,
2013-03-26 11:12:00,51.0,-99.9,30.01,SSE,162,7.0,9.0,-999,-99.99,,,-99.99,,2013-03-26 18:12:00,
2013-03-26 11:23:00,51.0,-99.9,30.01,SSE,165,8.0,10.0,-999,-99.99,,,-99.99,,2013-03-26 18:23:00,
2013-03-26 11:34:00,52.0,-99.9,30.01,SSE,157,7.0,10.0,-999,-99.99,,,-99.99,,2013-03-26 18:34:00,
2013-03-26 11:42:00,52.0,-99.9,30.01,SSE,167,7.0,9.0,-999,-99.99,,,-99.99,,2013-03-26 18:42:00,
2013-03-26 11:53:00,52.0,-99.9,30.01,SSE,167,9.0,11.0,-999,-99.99,,,-99.99,,2013-03-26 18:53:00,
2013-03-26 12:12:00,52.0,-99.9,30.01,SSE,163,10.0,11.0,-999,-99.99,,,-99.99,,2013-03-26 19:12:00,
2013-03-26 12:23:00,52.0,-99.9,30.01,SSE,163,10.0,11.0,-999,-99.99,,,-99.99,,2013-03-26 19:23:00,
2013-03-26 12:33:00,52.0,-99.9,30.01,SSE,163,10.0,11.0,-999,-99.99,,,-99.99,,2013-03-26 19:33:00,
2013-03-26 12:42:00,54.0,-99.9,30.01,South,171,5.0,9.0,-999,-99.99,,,-99.99,,2013-03-26 19:42:00,
2013-03-26 12:53:00,55.0,-99.9,30.01,SSE,164,4.0,9.0,-999,-99.99,,,-99.99,,2013-03-26 19:53:00,
2013-03-26 13:02:00,54.0,-99.9,30.01,South,188,5.0,10.0,-999,-99.99,,,-99.99,,2013-03-26 20:02:00,
2013-03-26 13:13:00,55.0,-99.9,30.01,South,186,6.0,11.0,-999,-99.99,,,-99.99,,2013-03-26 20:13:00,
2013-03-26 13:23:00,55.0,-99.9,30.00,South,178,5.0,9.0,-999,-99.99,,,-99.99,,2013-03-26 20:23:00,
2013-03-26 13:33:00,56.0,-99.9,30.00,South,169,3.0,9.0,-999,-99.99,,,-99.99,,2013-03-26 20:33:00,
2013-03-26 13:43:00,55.0,-99.9,30.00,South,173,4.0,8.0,-999,-99.99,,,-99.99,,2013-03-26 20:43:00,
2013-03-26 13:53:00,56.0,-99.9,30.00,South,170,4.0,9.0,-999,-99.99,,,-99.99,,2013-03-26 20:53:00,
2013-03-26 14:02:00,56.0,-99.9,29.99,SSE,158,6.0,8.0,-999,-99.99,,,-99.99,,2013-03-26 21:02:00,
2013-03-26 14:13:00,56.0,-99.9,29.99,SSE,158,5.0,8.0,-999,-99.99,,,-99.99,,2013-03-26 21:13:00,
2013-03-26 14:23:00,56.0,-99.9,29.99,South,177,4.0,7.0,-999,-99.99,,,-99.99,,2013-03-26 21:23:00,
2013-03-26 14:33:00,56.0,-99.9,29.98,SSE,160,5.0,9.0,-999,-99.99,,,-99.99,,2013-03-26 21:33:00,
2013-03-26 14:43:00,56.0,-99.9,29.98,SSE,161,5.0,8.0,-999,-99.99,,,-99.99,,2013-03-26 21:43:00,
2013-03-26 14:53:00,57.0,-99.9,29.98,SSE,163,5.0,9.0,-999,-99.99,,,-99.99,,2013-03-26 21:53:00,
2013-03-26 15:02:00,57.0,-99.9,29.98,SSE,164,5.0,8.0,-999,-99.99,,,-99.99,,2013-03-26 22:02:00,
2013-03-26 15:12:00,57.0,-99.9,29.98,South,170,5.0,8.0,-999,-99.99,,,-99.99,,2013-03-26 22:12:00,
2013-03-26 15:23:00,58.0,-99.9,29.97,SSE,160,3.0,7.0,-999,-99.99,,,-99.99,,2013-03-26 22:23:00,
2013-03-26 15:33:00,57.0,-99.9,29.97,South,174,4.0,8.0,-999,-99.99,,,-99.99,,2013-03-26 22:33:00,
2013-03-26 15:43:00,57.0,-99.9,29.97,South,172,4.0,8.0,-999,-99.99,,,-99.99,,2013-03-26 22:43:00,
2013-03-26 15:53:00,58.0,-99.9,29.97,South,175,4.0,7.0,-999,-99.99,,,-99.99,,2013-03-26 22:53:00,
2013-03-26 16:01:00,57.0,-99.9,29.96,SSE,168,5.0,7.0,-999,-99.99,,,-99.99,,2013-03-26 23:01:00,
2013-03-26 16:11:00,58.0,-99.9,29.96,SSE,151,4.0,8.0,-999,-99.99,,,-99.99,,2013-03-26 23:11:00,
2013-03-26 16:23:00,58.0,-99.9,29.96,SSE,147,4.0,8.0,-999,-99.99,,,-99.99,,2013-03-26 23:23:00,
2013-03-26 16:53:00,58.0,-99.9,29.96,SSW,210,3.0,6.0,-999,-99.99,,,-99.99,,2013-03-26 23:53:00,
2013-03-26 17:02:00,58.0,-99.9,29.95,SSW,195,3.0,6.0,-999,-99.99,,,-99.99,,2013-03-27 00:02:00,
2013-03-26 17:12:00,58.0,-99.9,29.95,ESE,110,2.0,6.0,-999,-99.99,,,-99.99,,2013-03-27 00:12:00,
2013-03-26 17:22:00,59.0,-99.9,29.95,South,175,3.0,5.0,-999,-99.99,,,-99.99,,2013-03-27 00:22:00,
2013-03-26 17:33:00,57.0,-99.9,29.94,East,89,4.0,4.0,-999,-99.99,,,-99.99,,2013-03-27 00:33:00,
2013-03-26 17:42:00,58.0,-99.9,29.94,SSE,148,2.0,5.0,-999,-99.99,,,-99.99,,2013-03-27 00:42:00,
2013-03-26 17:52:00,58.0,-99.9,29.94,WNW,295,2.0,4.0,-999,-99.99,,,-99.99,,2013-03-27 00:52:00,
2013-03-26 18:02:00,57.0,-99.9,29.94,NNW,332,2.0,3.0,-999,-99.99,,,-99.99,,2013-03-27 01:02:00,
2013-03-26 18:12:00,57.0,-99.9,29.94,West,269,5.0,9.0,-999,-99.99,,,-99.99,,2013-03-27 01:12:00,
2013-03-26 18:23:00,56.0,-99.9,29.94,WNW,284,4.0,7.0,-999,-99.99,,,-99.99,,2013-03-27 01:23:00,
2013-03-26 18:33:00,56.0,-99.9,29.94,West,265,3.0,6.0,-999,-99.99,,,-99.99,,2013-03-27 01:33:00,
2013-03-26 18:53:00,56.0,-99.9,29.95,WSW,256,3.0,8.0,-999,-99.99,,,-99.99,,2013-03-27 01:53:00,
2013-03-26 19:03:00,56.0,-99.9,29.94,SW,234,2.0,8.0,-999,-99.99,,,-99.99,,2013-03-27 02:03:00,
2013-03-26 19:12:00,56.0,-99.9,29.95,SW,224,0.0,4.0,-999,-99.99,,,-99.99,,2013-03-27 02:12:00,
2013-03-26 19:22:00,56.0,-99.9,29.95,WNW,298,2.0,4.0,-999,-99.99,,,-99.99,,2013-03-27 02:22:00,
2013-03-26 19:32:00,56.0,-99.9,29.95,SW,227,2.0,4.0,-999,-99.99,,,-99.99,,2013-03-27 02:32:00,
2013-03-26 19:43:00,55.0,-99.9,29.95,West,277,3.0,6.0,-999,-99.99,,,-99.99,,2013-03-27 02:43:00,
2013-03-26 19:53:00,55.0,-99.9,29.95,West,259,4.0,7.0,-999,-99.99,,,-99.99,,2013-03-27 02:53:00,
2013-03-26 20:02:00,54.0,-99.9,29.95,WSW,245,2.0,7.0,-999,-99.99,,,-99.99,,2013-03-27 03:02:00,
2013-03-26 20:22:00,54.0,-99.9,29.96,SW,229,2.0,7.0,-999,-99.99,,,-99.99,,2013-03-27 03:22:00,
2013-03-26 20:33:00,54.0,-99.9,29.96,West,262,2.0,7.0,-999,-99.99,,,-99.99,,2013-03-27 03:33:00,
2013-03-26 20:53:00,53.0,-99.9,29.96,West,272,5.0,11.0,-999,-99.99,,,-99.99,,2013-03-27 03:53:00,
2013-03-26 21:03:00,53.0,-99.9,29.96,West,274,3.0,9.0,-999,-99.99,,,-99.99,,2013-03-27 04:03:00,
2013-03-26 21:13:00,53.0,-99.9,29.96,West,271,4.0,9.0,-999,-99.99,,,-99.99,,2013-03-27 04:13:00,
2013-03-26 21:23:00,53.0,-99.9,29.97,West,279,5.0,8.0,-999,-99.99,,,-99.99,,2013-03-27 04:23:00,
2013-03-26 21:33:00,54.0,-99.9,29.97,West,281,6.0,9.0,-999,-99.99,,,-99.99,,2013-03-27 04:33:00,
2013-03-26 21:43:00,54.0,-99.9,29.97,West,272,5.0,9.0,-999,-99.99,,,-99.99,,2013-03-27 04:43:00,
2013-03-26 21:53:00,54.0,-99.9,29.97,West,273,6.0,8.0,-999,-99.99,,,-99.99,,2013-03-27 04:53:00,
2013-03-26 22:03:00,53.0,-99.9,29.98,West,266,4.0,9.0,-999,-99.99,,,-99.99,,2013-03-27 05:03:00,
2013-03-26 22:23:00,54.0,-99.9,29.98,WNW,283,4.0,5.0,-999,-99.99,,,-99.99,,2013-03-27 05:23:00,
2013-03-26 22:33:00,53.0,-99.9,29.98,West,262,3.0,6.0,-999,-99.99,,,-99.99,,2013-03-27 05:33:00,
2013-03-26 22:42:00,53.0,-99.9,29.98,WNW,293,2.0,7.0,-999,-99.99,,,-99.99,,2013-03-27 05:42:00,
2013-03-26 22:53:00,53.0,-99.9,29.98,WSW,255,2.0,4.0,-999,-99.99,,,-99.99,,2013-03-27 05:53:00,
2013-03-26 23:02:00,53.0,-99.9,29.98,WSW,258,2.0,3.0,-999,-99.99,,,-99.99,,2013-03-27 06:02:00,
2013-03-26 23:12:00,53.0,-99.9,29.98,West,263,3.0,6.0,-999,-99.99,,,-99.99,,2013-03-27 06:12:00,
2013-03-26 23:23:00,53.0,-99.9,29.98,WNW,287,3.0,6.0,-999,-99.99,,,-99.99,,2013-03-27 06:23:00,
2013-03-26 23:43:00,53.0,-99.9,29.98,WNW,282,3.0,6.0,-999,-99.99,,,-99.99,,2013-03-27 06:43:00,
2013-03-26 23:53:00,53.0,-99.9,29.98,West,279,3.0,5.0,-999,-99.99,,,-99.99,,2013-03-27 06:53:00,